Flag Weather past 2 weeks in Iquitos, Loreto, Peru

Now
79 °F

Broken clouds.


Feels Like: 82 °F
Forecast: 72 / 93 °F
Wind: 3 mph from North

Location: Iquitos Airport

Current Time: Oct 30, 2014 at 7:22:42 AM

Latest Report: Oct 30, 2014 at 7:00 AM


Visibility: N/A

Pressure: 29.77 "Hg

Humidity: 89%

Dew point: 75 °F

Location of IquitosLocation

Historic Weather in Iquitos — Graph

°F

Iquitos temperature yesterday

Maximum temperature yesterday: 90 °F (at 4:00 PM)
Minimum temperature yesterday: 75 °F (at 12:00 AM)
Average temperature yesterday: 81 °F

Past Weeks' High & Low Weather Summary

 TemperatureHumidityPressure
High95 °F (Oct 24, 4:00 PM)100% (Oct 17, 6:00 AM)30.04 "Hg (Oct 17, 6:00 AM)
Low72 °F (Oct 17, 4:00 AM)47% (Oct 24, 3:00 PM)29.68 "Hg (Oct 24, 3:00 PM)
Average80 °F83%29.85 "Hg
* Reported Oct 15 6:00 AM — Oct 30 6:00 AM, Iquitos, Weather by CustomWeather, © 2014

Note: Actual official high and low records may vary slightly from our data, if they occured in-between our weather recording intervals... More about our weather records

Advertising

Iquitos weather history for previous 24 hours

 ConditionsComfort  
Time TempWeatherWind HumidityBarometerVisibility
6:00 AM
Oct 30
77 °FBroken clouds.3 mph89%29.77 "Hg5 mi
5:00 AM75 °FPassing clouds.3 mph94%29.74 "Hg5 mi
4:00 AM75 °FPassing clouds.No wind94%29.71 "HgN/A
3:00 AM77 °FPassing clouds.5 mph89%29.71 "HgN/A
2:00 AM77 °FPassing clouds.5 mph94%29.74 "HgN/A
1:00 AM77 °FPassing clouds.5 mph94%29.74 "HgN/A
12:00 AM79 °FPassing clouds.5 mph89%29.80 "HgN/A
11:00 PM
Oct 29
79 °FPassing clouds.5 mph89%29.80 "HgN/A
10:00 PM79 °FPassing clouds.6 mph89%29.80 "HgN/A
9:00 PM81 °FPassing clouds.No wind89%29.80 "HgN/A
8:00 PM81 °FPassing clouds.No wind84%29.77 "HgN/A
7:00 PM81 °FPassing clouds.3 mph89%29.74 "HgN/A
6:00 PM84 °FPassing clouds.2 mph79%29.71 "HgN/A
5:00 PM88 °FScattered clouds.3 mph66%29.68 "HgN/A
4:00 PM90 °FScattered clouds.5 mph63%29.68 "HgN/A
3:00 PM88 °FPartly sunny.6 mph66%29.71 "HgN/A
2:00 PM88 °FScattered clouds.5 mph66%29.74 "HgN/A
1:00 PM86 °FScattered clouds.5 mph70%29.80 "HgN/A
12:00 PM86 °FPartly sunny.2 mph70%29.86 "HgN/A
11:00 AM82 °FBroken clouds.3 mph74%29.89 "HgN/A
10:00 AM79 °FPartly sunny.8 mph84%29.92 "HgN/A
9:00 AM77 °FPartly sunny.8 mph89%29.92 "HgN/A
8:00 AM77 °FDrizzle. More clouds than sun.6 mph94%29.89 "Hg5 mi
7:00 AM77 °FDrizzle. Broken clouds.3 mph89%29.89 "HgN/A
Weather by CustomWeather, © 2014

See weather overviewHow to use our weather pages